User: anonymous   Login
Location: PFO Observatory
(45.2937°N, 66.0991°W)
Time: 08:46:00
(UTC-03:00)
Language:

Cosmos 1151 Rocket - Orbit

View from above orbital plane
View from above orbital plane
View from above satellite
View from above satellite

Ground track
Ground track

The orbit data is extracted from the following two-line orbital elements,

1 11672U 80005B   16148.88382437  .00000135  00000-0  11993-4 0  9999
2 11672  82.5165  83.0243 0017441 151.4144 208.8034 14.87786694966100
Epoch (UTC): 27 May 2016 21:12:42
Eccentricity: 0.0017441
inclination: 82.5165°
perigee height: 592 km
apogee height: 617 km
right ascension of ascending node: 83.0243°
argument of perigee: 151.4144°
revolutions per day: 14.87786694
mean anomaly at epoch: 208.8034°
orbit number at epoch: 96610

The dashed part of the orbit path shows where the satellite is in the earth's shadow,  

DLR